Location: Unspecified
(22.6800°N, 112.2000°E)
Time: 22:16:10
(UTC+08:00)

Transit 4A - Pass Details

Date: 06 August 2021
Orbit: 871 x 974 km, 66.8° (Epoch: 21 September)

Event Time Altitude Azimuth Distance (km) Brightness Sun altitude
Exits shadow 22:52:37 10° 11° (NNE) 2,510 10.5 -43.2°
Drops below altitude 10° 22:52:46 10° 12° (NNE) 2,568 10.6 -43.2°
Sets 22:55:11 0° 16° (NNE) 3,459 11.3 -43.5°
